This is the latest recevied weather packets stored in our database for station/object CA3VLN-10. If no packets are shown the sender has not sent any weather packets the latest 10 day(s).
| Time | Temp. | Humidity | Pressure | Rain* | Wind** | Luminosity | Snow |
|---|---|---|---|---|---|---|---|
| 1777762983 | 20° C | 40% | 1005.7 hPa | - | - | - | - |
| 1777762083 | 20.56° C | 39% | 1005.5 hPa | - | - | - | - |
| 1777761183 | 20.56° C | 39% | 1005.5 hPa | - | - | - | - |
| 1777760283 | 21.11° C | 38% | 1005.4 hPa | - | - | - | - |
| 1777759383 | 21.67° C | 37% | 1005.5 hPa | - | - | - | - |
| 1777758482 | 22.22° C | 36% | 1005.3 hPa | - | - | - | - |
| 1777757582 | 22.78° C | 35% | 1005.1 hPa | - | - | - | - |
| 1777756682 | 22.78° C | 35% | 1005.1 hPa | - | - | - | - |
| 1777755782 | 23.33° C | 34% | 1004.9 hPa | - | - | - | - |
| 1777754882 | 23.33° C | 34% | 1004.8 hPa | - | - | - | - |
| 1777753982 | 23.33° C | 33% | 1004.7 hPa | - | - | - | - |
| 1777753081 | 23.89° C | 33% | 1004.7 hPa | - | - | - | - |
| 1777752181 | 23.89° C | 33% | 1005 hPa | - | - | - | - |
| 1777751281 | 24.44° C | 33% | 1005 hPa | - | - | - | - |
| 1777750381 | 24.44° C | 33% | 1004.9 hPa | - | - | - | - |
| 1777749481 | 24.44° C | 34% | 1004.8 hPa | - | - | - | - |
| 1777748581 | 24.44° C | 34% | 1004.8 hPa | - | - | - | - |
| 1777747681 | 24.44° C | 34% | 1004.7 hPa | - | - | - | - |
| 1777746781 | 23.89° C | 35% | 1004.7 hPa | - | - | - | - |
| 1777745881 | 23.89° C | 35% | 1004.7 hPa | - | - | - | - |
| 1777744980 | 23.89° C | 35% | 1004.8 hPa | - | - | - | - |
| 1777744080 | 23.89° C | 36% | 1004.9 hPa | - | - | - | - |
| 1777743180 | 23.33° C | 37% | 1004.9 hPa | - | - | - | - |
| 1777742280 | 23.33° C | 37% | 1005 hPa | - | - | - | - |
| 1777741380 | 23.33° C | 37% | 1005.1 hPa | - | - | - | - |
* Rain since midnight (hover to see other rain measurements)
** Current wind speed in m/s (hover to see current wind gust speed)